| time (UTC) | temp F | wind direction | speed knots | gust knots | rain 1hr in | rain 24hr in | rain mn in | humidity % | barometer mb |
| 20260503181021 | 59 | 181 | 3.5 | 7.0 | 0.00 | 0.00 | 0.00 | 73 | 1012.4 |
| 20260503180016 | 57 | 77 | 0.9 | 3.5 | 0.00 | 0.00 | 0.00 | 76 | 1012.5 |
| 20260503175019 | 56 | 161 | 0.9 | 2.6 | 0.00 | 0.00 | 0.00 | 80 | 1012.6 |
| 20260503174022 | 56 | 119 | 0.0 | 2.6 | 0.00 | 0.00 | 0.00 | 80 | 1012.4 |
| 20260503173018 | 56 | 175 | 1.7 | 4.3 | 0.00 | 0.00 | 0.00 | 80 | 1012.4 |
| 20260503172020 | 55 | 198 | 2.6 | 5.2 | 0.00 | 0.00 | 0.00 | 82 | 1012.2 |
| 20260503171016 | 55 | 191 | 3.5 | 6.1 | 0.00 | 0.00 | 0.00 | 82 | 1012.2 |
| 20260503131016 | 52 | 86 | 0.9 | 2.6 | 0.00 | 0.00 | 0.00 | 92 | 1010.0 |
| 20260503081022 | 52 | 196 | 1.7 | 3.5 | 0.00 | 0.00 | 0.00 | 90 | 1010.8 |
| 20260503072021 | 52 | 159 | 0.9 | 1.7 | 0.00 | 0.00 | 0.00 | 90 | 1010.9 |
| 20260503071016 | 52 | 203 | 0.0 | 1.7 | 0.00 | 0.00 | 0.00 | 90 | 1010.9 |
| 20260503055017 | 52 | 194 | 2.6 | 3.5 | 0.00 | 0.00 | 0.00 | 89 | 1011.4 |
| 20260503054040 | 52 | 194 | 2.6 | 3.5 | 0.00 | 0.00 | 0.00 | 89 | 1011.4 |
| 20260503053103 | 52 | 179 | 2.6 | 3.5 | 0.00 | 0.00 | 0.00 | 89 | 1011.4 |
| 20260503052038 | 52 | 193 | 0.9 | 4.3 | 0.00 | 0.00 | 0.00 | 89 | 1011.4 |
| 20260503051041 | 52 | 202 | 1.7 | 3.5 | 0.00 | 0.00 | 0.00 | 89 | 1011.6 |
| 20260503050036 | 52 | 203 | 2.6 | 4.3 | 0.00 | 0.00 | 0.00 | 88 | 1011.5 |
| 20260503045019 | 52 | 177 | 1.7 | 3.5 | 0.00 | 0.00 | 0.00 | 88 | 1011.5 |
| 20260503044023 | 53 | 193 | 1.7 | 3.5 | 0.00 | 0.00 | 0.00 | 88 | 1011.3 |
| 20260503043018 | 52 | 193 | 2.6 | 3.5 | 0.00 | 0.00 | 0.00 | 88 | 1011.3 |
| 20260503042020 | 53 | 198 | 1.7 | 3.5 | 0.00 | 0.00 | 0.00 | 88 | 1011.3 |
| 20260503041022 | 53 | 189 | 2.6 | 4.3 | 0.00 | 0.00 | 0.00 | 87 | 1011.2 |
| 20260503040017 | 53 | 193 | 2.6 | 3.5 | 0.00 | 0.00 | 0.00 | 87 | 1011.1 |
| 20260503035018 | 53 | 191 | 0.9 | 2.6 | 0.00 | 0.00 | 0.00 | 86 | 1011.0 |
| 20260503034020 | 53 | 175 | 0.9 | 2.6 | 0.00 | 0.00 | 0.00 | 86 | 1010.9 |
| 20260503033022 | 53 | 194 | 0.9 | 3.5 | 0.00 | 0.00 | 0.00 | 85 | 1010.7 |
| 20260503032016 | 53 | 165 | 0.0 | 2.6 | 0.00 | 0.00 | 0.00 | 85 | 1010.6 |
| 20260503031019 | 53 | 170 | 0.9 | 3.5 | 0.00 | 0.00 | 0.00 | 85 | 1010.6 |
| 20260503030021 | 53 | 187 | 1.7 | 5.2 | 0.00 | 0.00 | 0.00 | 85 | 1010.7 |
| 20260503025023 | 54 | 187 | 0.0 | 3.5 | 0.00 | 0.00 | 0.00 | 85 | 1010.7 |
| 20260503024018 | 54 | 156 | 0.9 | 3.5 | 0.00 | 0.00 | 0.00 | 85 | 1010.7 |
| 20260503023020 | 54 | 127 | 0.9 | 3.5 | 0.00 | 0.00 | 0.00 | 84 | 1010.7 |
| 20260503022023 | 54 | 172 | 1.7 | 4.3 | 0.00 | 0.00 | 0.00 | 84 | 1010.8 |
| 20260503021017 | 54 | 145 | 0.9 | 3.5 | 0.00 | 0.00 | 0.00 | 83 | 1010.8 |
| 20260503020039 | 54 | 28 | 0.9 | 2.6 | 0.00 | 0.00 | 0.00 | 82 | 1010.8 |
| 20260503015022 | 54 | 110 | 0.9 | 3.5 | 0.00 | 0.00 | 0.00 | 82 | 1011.0 |
| 20260503014016 | 54 | 199 | 3.5 | 7.0 | 0.00 | 0.00 | 0.00 | 82 | 1010.9 |
| 20260503013018 | 55 | 150 | 0.9 | 3.5 | 0.00 | 0.00 | 0.00 | 82 | 1011.0 |
| 20260503012040 | 55 | 195 | 1.7 | 7.0 | 0.00 | 0.00 | 0.00 | 81 | 1011.1 |
| 20260503011042 | 55 | 160 | 1.7 | 3.5 | 0.00 | 0.00 | 0.00 | 82 | 1011.1 |
| 20260503010016 | 55 | 193 | 2.6 | 5.2 | 0.00 | 0.00 | 0.00 | 81 | 1011.1 |
| 20260503005018 | 55 | 207 | 3.5 | 7.8 | 0.00 | 0.00 | 0.00 | 81 | 1011.2 |
| 20260503004019 | 55 | 176 | 1.7 | 6.1 | 0.00 | 0.00 | 0.00 | 81 | 1011.1 |
| 20260503003022 | 56 | 190 | 2.6 | 7.0 | 0.00 | 0.00 | 0.00 | 80 | 1011.2 |
| 20260503002016 | 56 | 189 | 2.6 | 7.8 | 0.00 | 0.00 | 0.00 | 79 | 1011.1 |
| 20260503001018 | 57 | 117 | 0.9 | 3.5 | 0.00 | 0.00 | 0.00 | 78 | 1011.3 |
| 20260503000042 | 57 | 56 | 0.9 | 3.5 | 0.00 | 0.00 | 0.00 | 79 | 1011.3 |
| 20260502235022 | 57 | 171 | 1.7 | 6.1 | 0.00 | 0.00 | 0.00 | 78 | 1011.4 |
| 20260502234016 | 58 | 182 | 0.9 | 5.2 | 0.00 | 0.00 | 0.00 | 77 | 1011.3 |
| 20260502233017 | 58 | 183 | 1.7 | 7.0 | 0.00 | 0.00 | 0.00 | 77 | 1011.4 |
| 20260502232019 | 58 | 186 | 2.6 | 7.0 | 0.00 | 0.00 | 0.00 | 76 | 1011.4 |
| 20260502231021 | 58 | 196 | 5.2 | 9.6 | 0.00 | 0.00 | 0.00 | 77 | 1011.5 |
| 20260502230016 | 58 | 196 | 5.2 | 10.4 | 0.00 | 0.00 | 0.00 | 76 | 1011.6 |
| 20260502225018 | 57 | 205 | 4.3 | 8.7 | 0.00 | 0.00 | 0.00 | 77 | 1011.7 |
| 20260502224020 | 58 | 193 | 3.5 | 8.7 | 0.00 | 0.00 | 0.00 | 77 | 1011.8 |
| 20260502223021 | 57 | 204 | 4.3 | 12.2 | 0.00 | 0.00 | 0.00 | 78 | 1011.9 |
| 20260502222041 | 57 | 202 | 5.2 | 9.6 | 0.00 | 0.00 | 0.00 | 79 | 1012.0 |
| 20260502221022 | 57 | 204 | 5.2 | 11.3 | 0.00 | 0.00 | 0.00 | 79 | 1012.1 |
| 20260502220015 | 57 | 201 | 5.2 | 11.3 | 0.00 | 0.00 | 0.00 | 79 | 1012.1 |
| 20260502215036 | 57 | 202 | 5.2 | 10.4 | 0.00 | 0.00 | 0.00 | 79 | 1012.3 |
| 20260502214059 | 57 | 188 | 2.6 | 7.0 | 0.00 | 0.00 | 0.00 | 81 | 1012.2 |
| 20260502213022 | 56 | 197 | 2.6 | 10.4 | 0.00 | 0.00 | 0.00 | 83 | 1012.2 |
| 20260502212017 | 57 | 197 | 1.7 | 7.8 | 0.00 | 0.00 | 0.00 | 82 | 1012.3 |
| 20260502211020 | 57 | 191 | 4.3 | 8.7 | 0.00 | 0.00 | 0.00 | 81 | 1012.5 |
| 20260502210023 | 57 | 184 | 3.5 | 6.1 | 0.00 | 0.00 | 0.00 | 83 | 1012.5 |
| 20260502205018 | 57 | 192 | 5.2 | 7.8 | 0.00 | 0.00 | 0.00 | 83 | 1012.5 |
| 20260502204022 | 56 | 189 | 2.6 | 7.0 | 0.00 | 0.00 | 0.00 | 83 | 1012.6 |
| 20260502203016 | 56 | 187 | 2.6 | 5.2 | 0.00 | 0.00 | 0.00 | 84 | 1012.7 |
| 20260502202019 | 55 | 203 | 4.3 | 7.8 | 0.00 | 0.00 | 0.00 | 85 | 1012.8 |
| 20260502201022 | 56 | 192 | 2.6 | 6.1 | 0.00 | 0.00 | 0.00 | 84 | 1012.8 |
| 20260502200017 | 56 | 183 | 2.6 | 5.2 | 0.00 | 0.00 | 0.00 | 85 | 1012.9 |
| 20260502195021 | 56 | 195 | 3.5 | 6.1 | 0.00 | 0.00 | 0.00 | 84 | 1012.8 |
| 20260502194035 | 56 | 195 | 3.5 | 6.1 | 0.00 | 0.00 | 0.00 | 84 | 1012.8 |
| 20260502193018 | 56 | 189 | 4.3 | 7.0 | 0.00 | 0.00 | 0.00 | 84 | 1012.8 |
| 20260502192021 | 56 | 205 | 3.5 | 5.2 | 0.00 | 0.00 | 0.00 | 84 | 1013.1 |
| 20260502191017 | 57 | 193 | 3.5 | 6.1 | 0.00 | 0.00 | 0.00 | 84 | 1012.9 |
| 20260502190020 | 57 | 197 | 2.6 | 5.2 | 0.00 | 0.00 | 0.00 | 82 | 1012.9 |
| 20260502185023 | 57 | 194 | 3.5 | 7.8 | 0.00 | 0.00 | 0.00 | 81 | 1012.9 |
| 20260502184017 | 56 | 196 | 3.5 | 5.2 | 0.00 | 0.00 | 0.00 | 82 | 1012.9 |
| 20260502182016 | 55 | 156 | 2.6 | 4.3 | 0.00 | 0.00 | 0.00 | 84 | 1012.8 |